Epoch 2001 Jan. 11.0 TT = JDT 2451920.5 T 2001 Jan. 12.75938 TT MPC q 2.0898247 (2000.0) P Q n 0.14696718 Peri. 274.01845 +0.92265818 -0.35719606 a 3.5562242 Node 106.95737 +0.38561354 +0.85266513 e 0.4123473 Incl. 8.73747 +0.00202122 +0.38127832 P 6.71
m1 = 13.0 + 5 logΔ + 10.0 log r